| time (UTC) | temp F | wind direction | speed knots | gust knots | rain 1hr in | rain 24hr in | rain mn in | humidity % | barometer mb |
| 20260906060510 | 68 | 0 | 0.0 | 0.9 | 0.00 | 0.00 | 0.00 | 94 | 1017.7 |
| 20260906060010 | 69 | 0 | 0.0 | 2.6 | 0.00 | 0.00 | 0.00 | 94 | 1017.7 |
| 20260906055511 | 69 | 20 | 1.7 | 2.6 | 0.00 | 0.00 | 0.00 | 94 | 1017.8 |
| 20260906055011 | 69 | 0 | 0.0 | 2.6 | 0.00 | 0.00 | 0.00 | 94 | 1017.7 |
| 20260906054510 | 69 | 11 | 0.9 | 2.6 | 0.00 | 0.00 | 0.00 | 94 | 1017.7 |
| 20260906054010 | 69 | 0 | 0.0 | 0.0 | 0.00 | 0.00 | 0.00 | 94 | 1017.8 |
| 20260906053009 | 69 | 0 | 0.0 | 0.0 | 0.00 | 0.00 | 0.00 | 94 | 1017.9 |
| 20260906052010 | 69 | 0 | 0.0 | 2.6 | 0.00 | 0.00 | 0.00 | 94 | 1018.1 |
| 20260906051510 | 69 | 11 | 0.9 | 2.6 | 0.00 | 0.00 | 0.00 | 94 | 1018.1 |
| 20260906051010 | 69 | 0 | 0.0 | 0.0 | 0.00 | 0.00 | 0.00 | 94 | 1018.1 |
| 20260906050510 | 69 | 0 | 0.0 | 0.0 | 0.00 | 0.00 | 0.00 | 94 | 1018.2 |
| 20260906045511 | 69 | 0 | 0.0 | 0.0 | 0.00 | 0.00 | 0.00 | 93 | 1018.1 |
| 20260906045009 | 70 | 0 | 0.0 | 0.0 | 0.00 | 0.00 | 0.00 | 93 | 1018.3 |
| 20260906044510 | 70 | 0 | 0.0 | 0.0 | 0.00 | 0.00 | 0.00 | 93 | 1018.3 |
| 20260906043511 | 70 | 0 | 0.0 | 0.0 | 0.00 | 0.00 | 0.00 | 93 | 1018.5 |
| 20260906043011 | 70 | 0 | 0.0 | 1.7 | 0.00 | 0.00 | 0.00 | 93 | 1018.4 |
| 20260906042510 | 70 | 0 | 0.0 | 1.7 | 0.00 | 0.00 | 0.00 | 93 | 1018.4 |
| 20260906042010 | 70 | 359 | 0.0 | 1.7 | 0.00 | 0.00 | 0.00 | 93 | 1018.3 |
| 20260906041510 | 70 | 0 | 0.0 | 0.0 | 0.00 | 0.00 | 0.00 | 93 | 1018.2 |
| 20260906041009 | 70 | 0 | 0.0 | 0.0 | 0.00 | 0.00 | 0.00 | 93 | 1018.3 |
| 20260906040511 | 70 | 0 | 0.0 | 0.0 | 0.00 | 0.00 | 0.00 | 93 | 1018.4 |
| 20260906035010 | 70 | 0 | 0.0 | 0.0 | 0.00 | 0.00 | 0.00 | 93 | 1018.4 |
| 20260906034511 | 70 | 0 | 0.0 | 0.0 | 0.00 | 0.00 | 0.00 | 93 | 1018.6 |
| 20260906034010 | 70 | 0 | 0.0 | 0.0 | 0.00 | 0.00 | 0.00 | 93 | 1018.4 |
| 20260906033510 | 71 | 0 | 0.0 | 0.0 | 0.00 | 0.00 | 0.00 | 93 | 1018.5 |
| 20260906033011 | 70 | 0 | 0.0 | 0.0 | 0.00 | 0.00 | 0.00 | 93 | 1018.5 |
| 20260906032509 | 71 | 0 | 0.0 | 0.0 | 0.00 | 0.00 | 0.00 | 93 | 1018.8 |
| 20260906032010 | 71 | 0 | 0.0 | 0.0 | 0.00 | 0.00 | 0.00 | 92 | 1018.7 |
| 20260906031510 | 71 | 0 | 0.0 | 0.0 | 0.00 | 0.00 | 0.00 | 92 | 1018.8 |
| 20260906031010 | 71 | 0 | 0.0 | 0.0 | 0.00 | 0.00 | 0.00 | 92 | 1018.7 |
| 20260906025509 | 71 | 0 | 0.0 | 0.0 | 0.00 | 0.00 | 0.00 | 92 | 1018.8 |
| 20260906025011 | 71 | 0 | 0.0 | 0.0 | 0.00 | 0.00 | 0.00 | 92 | 1018.7 |
| 20260906024510 | 71 | 0 | 0.0 | 0.0 | 0.00 | 0.00 | 0.00 | 92 | 1018.8 |
| 20260906024009 | 71 | 0 | 0.0 | 0.0 | 0.00 | 0.00 | 0.00 | 91 | 1018.7 |
| 20260906023510 | 72 | 0 | 0.0 | 0.0 | 0.00 | 0.00 | 0.00 | 91 | 1018.7 |
| 20260906023010 | 72 | 0 | 0.0 | 0.0 | 0.00 | 0.00 | 0.00 | 91 | 1018.6 |
| 20260906022510 | 72 | 0 | 0.0 | 0.0 | 0.00 | 0.00 | 0.00 | 91 | 1018.6 |
| 20260906021510 | 72 | 0 | 0.0 | 0.0 | 0.00 | 0.00 | 0.00 | 91 | 1018.4 |
| 20260906021010 | 72 | 0 | 0.0 | 0.0 | 0.00 | 0.00 | 0.00 | 90 | 1018.2 |
| 20260906020511 | 72 | 0 | 0.0 | 0.0 | 0.00 | 0.00 | 0.00 | 90 | 1018.0 |
| 20260906020010 | 73 | 0 | 0.0 | 0.0 | 0.00 | 0.00 | 0.00 | 90 | 1017.9 |
| 20260906015510 | 73 | 0 | 0.0 | 0.0 | 0.00 | 0.00 | 0.00 | 89 | 1018.0 |
| 20260906015011 | 73 | 0 | 0.0 | 0.0 | 0.00 | 0.00 | 0.00 | 89 | 1018.1 |
| 20260906014510 | 73 | 0 | 0.0 | 0.0 | 0.00 | 0.00 | 0.00 | 89 | 1018.0 |
| 20260906014010 | 73 | 0 | 0.0 | 0.0 | 0.00 | 0.00 | 0.00 | 89 | 1018.0 |
| 20260906013010 | 74 | 0 | 0.0 | 0.0 | 0.00 | 0.00 | 0.00 | 88 | 1018.3 |
| 20260906012510 | 74 | 0 | 0.0 | 0.0 | 0.00 | 0.00 | 0.00 | 88 | 1018.2 |
| 20260906011011 | 74 | 0 | 0.0 | 0.0 | 0.00 | 0.00 | 0.00 | 87 | 1017.9 |
| 20260906010510 | 74 | 0 | 0.0 | 0.0 | 0.00 | 0.00 | 0.00 | 87 | 1017.9 |
| 20260906010010 | 74 | 0 | 0.0 | 0.0 | 0.00 | 0.00 | 0.00 | 87 | 1017.9 |
| 20260906005509 | 75 | 0 | 0.0 | 0.0 | 0.00 | 0.00 | 0.00 | 86 | 1017.8 |
| 20260906005010 | 75 | 0 | 0.0 | 0.0 | 0.00 | 0.00 | 0.00 | 86 | 1017.8 |
| 20260906004510 | 75 | 0 | 0.0 | 0.0 | 0.00 | 0.00 | 0.00 | 86 | 1017.6 |
| 20260906004010 | 75 | 0 | 0.0 | 0.0 | 0.00 | 0.00 | 0.00 | 85 | 1017.6 |
| 20260906003509 | 75 | 0 | 0.0 | 0.0 | 0.00 | 0.00 | 0.00 | 85 | 1017.5 |
| 20260906003010 | 76 | 0 | 0.0 | 0.0 | 0.00 | 0.00 | 0.00 | 85 | 1017.4 |
| 20260906002510 | 76 | 0 | 0.0 | 0.0 | 0.00 | 0.00 | 0.00 | 84 | 1017.5 |
| 20260906002010 | 76 | 0 | 0.0 | 0.0 | 0.00 | 0.00 | 0.00 | 84 | 1017.3 |
| 20260906001010 | 77 | 0 | 0.0 | 0.0 | 0.00 | 0.00 | 0.00 | 83 | 1017.2 |
| 20260905235510 | 78 | 0 | 0.0 | 0.0 | 0.00 | 0.00 | 0.00 | 81 | 1017.0 |
| 20260905234510 | 79 | 0 | 0.0 | 0.0 | 0.00 | 0.00 | 0.00 | 79 | 1016.9 |
| 20260905234011 | 79 | 0 | 0.0 | 1.7 | 0.00 | 0.00 | 0.00 | 78 | 1016.9 |
| 20260905233511 | 80 | 0 | 0.0 | 1.7 | 0.00 | 0.00 | 0.00 | 76 | 1016.9 |
| 20260905233009 | 80 | 156 | 0.0 | 1.7 | 0.00 | 0.00 | 0.00 | 75 | 1017.1 |
| 20260905232510 | 81 | 0 | 0.0 | 0.0 | 0.00 | 0.00 | 0.00 | 73 | 1017.0 |
| 20260905232010 | 81 | 0 | 0.0 | 0.0 | 0.00 | 0.00 | 0.00 | 72 | 1016.9 |
| 20260905231509 | 81 | 0 | 0.0 | 0.9 | 0.00 | 0.00 | 0.00 | 71 | 1016.8 |
| 20260905231010 | 82 | 0 | 0.0 | 0.9 | 0.00 | 0.00 | 0.00 | 71 | 1016.9 |
| 20260905230510 | 82 | 0 | 0.0 | 0.0 | 0.00 | 0.00 | 0.00 | 70 | 1016.9 |
| 20260905230010 | 82 | 0 | 0.0 | 1.7 | 0.00 | 0.00 | 0.00 | 69 | 1017.0 |
| 20260905225510 | 82 | 25 | 0.9 | 1.7 | 0.00 | 0.00 | 0.00 | 68 | 1016.9 |
| 20260905225009 | 82 | 0 | 0.0 | 1.7 | 0.00 | 0.00 | 0.00 | 68 | 1016.8 |
| 20260905224509 | 82 | 0 | 0.0 | 1.7 | 0.00 | 0.00 | 0.00 | 68 | 1016.8 |
| 20260905224010 | 83 | 9 | 0.9 | 1.7 | 0.00 | 0.00 | 0.00 | 68 | 1016.8 |
| 20260905223510 | 83 | 332 | 0.0 | 1.7 | 0.00 | 0.00 | 0.00 | 67 | 1016.8 |
| 20260905223010 | 84 | 311 | 0.0 | 1.7 | 0.00 | 0.00 | 0.00 | 66 | 1016.8 |
| 20260905222010 | 83 | 0 | 0.0 | 2.6 | 0.00 | 0.00 | 0.00 | 67 | 1017.0 |
| 20260905221511 | 83 | 24 | 0.9 | 2.6 | 0.00 | 0.00 | 0.00 | 66 | 1017.0 |
| 20260905221009 | 83 | 18 | 0.9 | 2.6 | 0.00 | 0.00 | 0.00 | 66 | 1016.9 |
| 20260905220011 | 83 | 16 | 0.9 | 8.7 | 0.00 | 0.00 | 0.00 | 67 | 1017.1 |
| 20260905215510 | 82 | 18 | 2.6 | 8.7 | 0.00 | 0.00 | 0.00 | 66 | 1017.2 |
| 20260905215010 | 83 | 24 | 1.7 | 4.3 | 0.00 | 0.00 | 0.00 | 67 | 1017.2 |
| 20260905214510 | 83 | 24 | 2.6 | 4.3 | 0.00 | 0.00 | 0.00 | 67 | 1017.2 |
| 20260905214010 | 83 | 23 | 2.6 | 4.3 | 0.00 | 0.00 | 0.00 | 67 | 1017.3 |
| 20260905213510 | 82 | 24 | 1.7 | 5.2 | 0.00 | 0.00 | 0.00 | 67 | 1017.4 |
| 20260905212510 | 82 | 28 | 1.7 | 3.5 | 0.00 | 0.00 | 0.00 | 68 | 1017.6 |
| 20260905212009 | 82 | 28 | 0.9 | 2.6 | 0.00 | 0.00 | 0.00 | 68 | 1017.8 |
| 20260905211510 | 82 | 17 | 1.7 | 2.6 | 0.00 | 0.00 | 0.00 | 68 | 1017.9 |
| 20260905211010 | 82 | 11 | 0.9 | 4.3 | 0.00 | 0.00 | 0.00 | 68 | 1017.9 |
| 20260905210509 | 82 | 4 | 1.7 | 4.3 | 0.00 | 0.00 | 0.00 | 67 | 1017.9 |
| 20260905210009 | 82 | 350 | 1.7 | 3.5 | 0.00 | 0.00 | 0.00 | 68 | 1017.9 |
| 20260905205510 | 82 | 346 | 0.0 | 2.6 | 0.00 | 0.00 | 0.00 | 67 | 1018.0 |
| 20260905204510 | 81 | 293 | 0.9 | 2.6 | 0.00 | 0.00 | 0.00 | 68 | 1017.9 |
| 20260905204010 | 80 | 0 | 0.0 | 4.3 | 0.00 | 0.00 | 0.00 | 68 | 1017.7 |
| 20260905203510 | 80 | 0 | 0.0 | 4.3 | 0.00 | 0.00 | 0.00 | 68 | 1017.8 |
| 20260905203009 | 80 | 0 | 0.0 | 2.6 | 0.00 | 0.00 | 0.00 | 68 | 1017.9 |
| 20260905202510 | 80 | 323 | 0.0 | 2.6 | 0.00 | 0.00 | 0.00 | 68 | 1017.9 |
| 20260905202010 | 80 | 4 | 1.7 | 4.3 | 0.00 | 0.00 | 0.00 | 70 | 1018.0 |
| 20260905201509 | 79 | 27 | 1.7 | 4.3 | 0.00 | 0.00 | 0.00 | 70 | 1018.1 |
| 20260905201010 | 79 | 26 | 0.9 | 5.2 | 0.00 | 0.00 | 0.00 | 71 | 1018.1 |
| 20260905200509 | 79 | 18 | 2.6 | 5.2 | 0.00 | 0.00 | 0.00 | 71 | 1018.1 |
| 20260905200009 | 79 | 13 | 1.7 | 4.3 | 0.00 | 0.00 | 0.00 | 71 | 1018.3 |
| 20260905195510 | 79 | 14 | 2.6 | 3.5 | 0.00 | 0.00 | 0.00 | 70 | 1018.6 |
| 20260905195009 | 79 | 20 | 0.9 | 2.6 | 0.00 | 0.00 | 0.00 | 71 | 1018.5 |
| 20260905194010 | 79 | 359 | 1.7 | 3.5 | 0.00 | 0.00 | 0.00 | 69 | 1018.5 |
| 20260905193009 | 78 | 0 | 0.0 | 0.0 | 0.00 | 0.00 | 0.00 | 71 | 1018.6 |
| 20260905192510 | 78 | 0 | 0.0 | 0.0 | 0.00 | 0.00 | 0.00 | 71 | 1018.7 |
| 20260905192010 | 78 | 0 | 0.0 | 0.0 | 0.00 | 0.00 | 0.00 | 70 | 1018.5 |
| 20260905191509 | 78 | 0 | 0.0 | 0.0 | 0.00 | 0.00 | 0.00 | 72 | 1018.5 |
| 20260905191010 | 79 | 0 | 0.0 | 0.0 | 0.00 | 0.00 | 0.00 | 71 | 1018.8 |
| 20260905190510 | 79 | 0 | 0.0 | 0.0 | 0.00 | 0.00 | 0.00 | 71 | 1018.8 |
| 20260905190009 | 79 | 0 | 0.0 | 1.7 | 0.00 | 0.00 | 0.00 | 72 | 1019.1 |
| 20260905185510 | 78 | 333 | 0.0 | 3.5 | 0.00 | 0.00 | 0.00 | 73 | 1019.2 |
| 20260905185010 | 78 | 0 | 0.0 | 3.5 | 0.00 | 0.00 | 0.00 | 73 | 1019.4 |
| 20260905184009 | 77 | 0 | 0.0 | 2.6 | 0.00 | 0.00 | 0.00 | 74 | 1019.2 |
| 20260905183510 | 77 | 42 | 0.0 | 2.6 | 0.00 | 0.00 | 0.00 | 73 | 1019.2 |
| 20260905182510 | 78 | 9 | 0.0 | 9.6 | 0.00 | 0.00 | 0.00 | 71 | 1019.6 |
| 20260905182010 | 78 | 7 | 3.5 | 12.2 | 0.00 | 0.00 | 0.00 | 70 | 1019.3 |
| 20260905181509 | 78 | 7 | 3.5 | 12.2 | 0.00 | 0.00 | 0.00 | 72 | 1019.2 |
| 20260905181010 | 78 | 8 | 2.6 | 7.8 | 0.00 | 0.00 | 0.00 | 77 | 1019.3 |
| 20260905180510 | 78 | 0 | 0.0 | 0.0 | 0.00 | 0.00 | 0.00 | 77 | 1018.8 |
| 20260905180011 | 78 | 0 | 0.0 | 0.0 | 0.00 | 0.00 | 0.00 | 76 | 1019.0 |
| 20260905175009 | 78 | 0 | 0.0 | 3.5 | 0.00 | 0.00 | 0.00 | 76 | 1018.6 |
| 20260905174510 | 79 | 34 | 1.7 | 5.2 | 0.00 | 0.00 | 0.00 | 74 | 1018.5 |
| 20260905174009 | 80 | 26 | 1.7 | 6.1 | 0.00 | 0.00 | 0.00 | 73 | 1018.5 |
| 20260905173509 | 81 | 26 | 2.6 | 8.7 | 0.00 | 0.00 | 0.00 | 71 | 1018.8 |
| 20260905172510 | 84 | 23 | 6.1 | 9.6 | 0.00 | 0.00 | 0.00 | 67 | 1019.2 |
| 20260905172010 | 85 | 18 | 6.1 | 8.7 | 0.00 | 0.00 | 0.00 | 64 | 1019.2 |
| 20260905171509 | 86 | 18 | 5.2 | 8.7 | 0.00 | 0.00 | 0.00 | 62 | 1019.0 |
| 20260905171010 | 86 | 22 | 3.5 | 7.8 | 0.00 | 0.00 | 0.00 | 61 | 1018.9 |
| 20260905170510 | 87 | 24 | 4.3 | 8.7 | 0.00 | 0.00 | 0.00 | 59 | 1018.7 |
| 20260905170010 | 89 | 22 | 5.2 | 8.7 | 0.00 | 0.00 | 0.00 | 57 | 1018.9 |
| 20260905165009 | 88 | 16 | 4.3 | 11.3 | 0.00 | 0.00 | 0.00 | 61 | 1019.1 |
| 20260905164509 | 88 | 16 | 6.1 | 11.3 | 0.00 | 0.00 | 0.00 | 61 | 1019.1 |
| 20260905163009 | 87 | 17 | 5.2 | 9.6 | 0.00 | 0.00 | 0.00 | 63 | 1019.4 |
| 20260905162510 | 86 | 18 | 5.2 | 8.7 | 0.00 | 0.00 | 0.00 | 65 | 1019.4 |
| 20260905162009 | 86 | 18 | 4.3 | 8.7 | 0.00 | 0.00 | 0.00 | 66 | 1019.6 |
| 20260905161009 | 85 | 14 | 3.5 | 12.2 | 0.00 | 0.00 | 0.00 | 67 | 1019.8 |
| 20260905160509 | 86 | 14 | 5.2 | 12.2 | 0.00 | 0.00 | 0.00 | 66 | 1019.8 |
| 20260905160010 | 86 | 11 | 4.3 | 8.7 | 0.00 | 0.00 | 0.00 | 67 | 1019.8 |
| 20260905155510 | 87 | 13 | 5.2 | 8.7 | 0.00 | 0.00 | 0.00 | 66 | 1019.8 |
| 20260905155009 | 87 | 12 | 3.5 | 6.1 | 0.00 | 0.00 | 0.00 | 66 | 1019.9 |
| 20260905154010 | 86 | 12 | 3.5 | 6.1 | 0.00 | 0.00 | 0.00 | 67 | 1019.9 |
| 20260905153509 | 86 | 7 | 0.0 | 6.1 | 0.00 | 0.00 | 0.00 | 69 | 1019.8 |
| 20260905153010 | 86 | 7 | 3.5 | 6.1 | 0.00 | 0.00 | 0.00 | 69 | 1019.9 |
| 20260905152510 | 85 | 12 | 2.6 | 6.1 | 0.00 | 0.00 | 0.00 | 72 | 1019.9 |
| 20260905152010 | 85 | 16 | 2.6 | 4.3 | 0.00 | 0.00 | 0.00 | 72 | 1019.8 |
| 20260905151510 | 85 | 19 | 1.7 | 3.5 | 0.00 | 0.00 | 0.00 | 72 | 1019.8 |
| 20260905151010 | 84 | 23 | 2.6 | 4.3 | 0.00 | 0.00 | 0.00 | 71 | 1019.9 |
| 20260905150510 | 84 | 16 | 1.7 | 4.3 | 0.00 | 0.00 | 0.00 | 70 | 1019.9 |
| 20260905150009 | 84 | 6 | 1.7 | 4.3 | 0.00 | 0.00 | 0.00 | 71 | 1019.8 |
| 20260905145510 | 84 | 325 | 0.9 | 3.5 | 0.00 | 0.00 | 0.00 | 73 | 1019.9 |
| 20260905145010 | 83 | 0 | 0.0 | 3.5 | 0.00 | 0.00 | 0.00 | 77 | 1019.9 |
| 20260905144509 | 82 | 10 | 0.0 | 2.6 | 0.00 | 0.00 | 0.00 | 77 | 1019.8 |
| 20260905144010 | 82 | 0 | 0.0 | 2.6 | 0.00 | 0.00 | 0.00 | 78 | 1019.9 |
| 20260905143510 | 82 | 0 | 0.0 | 0.9 | 0.00 | 0.00 | 0.00 | 80 | 1019.9 |
| 20260905143009 | 81 | 23 | 0.0 | 3.5 | 0.00 | 0.00 | 0.00 | 81 | 1019.9 |
| 20260905142509 | 80 | 0 | 0.0 | 3.5 | 0.00 | 0.00 | 0.00 | 82 | 1020.0 |
| 20260905142010 | 79 | 19 | 0.9 | 3.5 | 0.00 | 0.00 | 0.00 | 85 | 1020.0 |
| 20260905141510 | 78 | 23 | 1.7 | 3.5 | 0.00 | 0.00 | 0.00 | 85 | 1020.1 |
| 20260905141011 | 78 | 20 | 0.9 | 2.6 | 0.00 | 0.00 | 0.00 | 88 | 1020.1 |
| 20260905140509 | 77 | 342 | 0.0 | 0.9 | 0.00 | 0.00 | 0.00 | 90 | 1020.2 |
| 20260905140009 | 76 | 0 | 0.0 | 0.9 | 0.00 | 0.00 | 0.00 | 92 | 1020.2 |
| 20260905135510 | 75 | 0 | 0.0 | 2.6 | 0.00 | 0.00 | 0.00 | 93 | 1020.2 |
| 20260905135010 | 74 | 0 | 0.0 | 2.6 | 0.00 | 0.00 | 0.00 | 94 | 1020.4 |
| 20260905134509 | 74 | 0 | 0.0 | 1.7 | 0.00 | 0.00 | 0.00 | 94 | 1020.4 |
| 20260905134010 | 73 | 0 | 0.0 | 1.7 | 0.00 | 0.00 | 0.00 | 95 | 1020.3 |
| 20260905133510 | 72 | 18 | 0.0 | 0.9 | 0.00 | 0.00 | 0.00 | 95 | 1020.2 |
| 20260905133010 | 72 | 334 | 0.0 | 0.9 | 0.00 | 0.00 | 0.00 | 95 | 1020.2 |
| 20260905131510 | 71 | 0 | 0.0 | 0.0 | 0.00 | 0.00 | 0.00 | 96 | 1020.5 |
| 20260905131009 | 71 | 0 | 0.0 | 0.0 | 0.00 | 0.00 | 0.00 | 96 | 1020.5 |
| 20260905125010 | 69 | 0 | 0.0 | 0.0 | 0.00 | 0.00 | 0.00 | 96 | 1020.5 |
| 20260905124510 | 69 | 0 | 0.0 | 0.0 | 0.00 | 0.00 | 0.00 | 96 | 1020.5 |
| 20260905124010 | 69 | 0 | 0.0 | 0.0 | 0.00 | 0.00 | 0.00 | 96 | 1020.4 |
| 20260905123509 | 68 | 0 | 0.0 | 0.0 | 0.00 | 0.00 | 0.00 | 96 | 1020.3 |
| 20260905122009 | 68 | 0 | 0.0 | 0.0 | 0.00 | 0.00 | 0.00 | 95 | 1020.3 |
| 20260905121509 | 67 | 0 | 0.0 | 0.0 | 0.00 | 0.00 | 0.00 | 95 | 1020.2 |
| 20260905121009 | 67 | 0 | 0.0 | 0.0 | 0.00 | 0.00 | 0.00 | 95 | 1020.1 |
| 20260905120509 | 67 | 0 | 0.0 | 0.0 | 0.00 | 0.00 | 0.00 | 95 | 1020.1 |
| 20260905120009 | 67 | 0 | 0.0 | 0.0 | 0.00 | 0.00 | 0.00 | 95 | 1020.1 |
| 20260905115510 | 67 | 0 | 0.0 | 0.0 | 0.00 | 0.00 | 0.00 | 95 | 1020.1 |
| 20260905115009 | 67 | 0 | 0.0 | 0.0 | 0.00 | 0.00 | 0.00 | 95 | 1020.0 |
| 20260905114011 | 67 | 0 | 0.0 | 0.0 | 0.00 | 0.00 | 0.00 | 95 | 1020.1 |
| 20260905113509 | 66 | 0 | 0.0 | 0.0 | 0.00 | 0.00 | 0.00 | 95 | 1020.0 |
| 20260905112509 | 66 | 0 | 0.0 | 0.0 | 0.00 | 0.00 | 0.00 | 95 | 1019.8 |
| 20260905112009 | 66 | 0 | 0.0 | 0.0 | 0.00 | 0.00 | 0.00 | 95 | 1019.7 |
| 20260905111509 | 66 | 0 | 0.0 | 0.0 | 0.00 | 0.00 | 0.00 | 95 | 1019.6 |
| 20260905110509 | 66 | 0 | 0.0 | 0.0 | 0.00 | 0.00 | 0.00 | 95 | 1019.5 |
| 20260905105510 | 66 | 0 | 0.0 | 0.0 | 0.00 | 0.00 | 0.00 | 95 | 1019.4 |
| 20260905105010 | 66 | 0 | 0.0 | 0.0 | 0.00 | 0.00 | 0.00 | 95 | 1019.4 |
| 20260905104009 | 67 | 0 | 0.0 | 0.0 | 0.00 | 0.00 | 0.00 | 95 | 1019.3 |
| 20260905103510 | 67 | 0 | 0.0 | 0.0 | 0.00 | 0.00 | 0.00 | 95 | 1019.2 |
| 20260905103009 | 67 | 0 | 0.0 | 0.0 | 0.00 | 0.00 | 0.00 | 95 | 1019.2 |
| 20260905102509 | 67 | 0 | 0.0 | 0.0 | 0.00 | 0.00 | 0.00 | 95 | 1019.2 |
| 20260905102009 | 67 | 0 | 0.0 | 0.0 | 0.00 | 0.00 | 0.00 | 95 | 1019.0 |
| 20260905100509 | 67 | 0 | 0.0 | 0.0 | 0.00 | 0.00 | 0.00 | 95 | 1019.0 |
| 20260905100010 | 67 | 0 | 0.0 | 0.0 | 0.00 | 0.00 | 0.00 | 95 | 1019.0 |
| 20260905095510 | 67 | 0 | 0.0 | 0.0 | 0.00 | 0.00 | 0.00 | 95 | 1019.1 |
| 20260905095010 | 67 | 0 | 0.0 | 0.0 | 0.00 | 0.00 | 0.00 | 95 | 1019.1 |
| 20260905094010 | 67 | 0 | 0.0 | 0.0 | 0.00 | 0.00 | 0.00 | 95 | 1019.0 |
| 20260905093509 | 68 | 0 | 0.0 | 0.0 | 0.00 | 0.00 | 0.00 | 95 | 1019.0 |
| 20260905093010 | 68 | 0 | 0.0 | 0.0 | 0.00 | 0.00 | 0.00 | 95 | 1019.0 |
| 20260905092009 | 68 | 0 | 0.0 | 0.0 | 0.00 | 0.00 | 0.00 | 95 | 1019.1 |
| 20260905091509 | 67 | 0 | 0.0 | 0.0 | 0.00 | 0.00 | 0.00 | 95 | 1019.1 |
| 20260905091011 | 67 | 0 | 0.0 | 0.0 | 0.00 | 0.00 | 0.00 | 95 | 1019.1 |
| 20260905090509 | 68 | 0 | 0.0 | 0.0 | 0.00 | 0.00 | 0.00 | 95 | 1019.2 |
| 20260905090010 | 68 | 0 | 0.0 | 0.0 | 0.00 | 0.00 | 0.00 | 94 | 1019.2 |
| 20260905085509 | 68 | 0 | 0.0 | 0.0 | 0.00 | 0.00 | 0.00 | 94 | 1019.2 |
| 20260905085009 | 68 | 0 | 0.0 | 0.0 | 0.00 | 0.00 | 0.00 | 95 | 1019.2 |
| 20260905084509 | 68 | 0 | 0.0 | 0.0 | 0.00 | 0.00 | 0.00 | 95 | 1019.4 |
| 20260905083509 | 68 | 0 | 0.0 | 0.0 | 0.00 | 0.00 | 0.00 | 94 | 1019.4 |
| 20260905083009 | 68 | 0 | 0.0 | 0.0 | 0.00 | 0.00 | 0.00 | 94 | 1019.5 |
| 20260905082010 | 68 | 0 | 0.0 | 0.0 | 0.00 | 0.00 | 0.00 | 94 | 1019.6 |
| 20260905081511 | 68 | 0 | 0.0 | 0.0 | 0.00 | 0.00 | 0.00 | 94 | 1019.6 |
| 20260905081009 | 68 | 0 | 0.0 | 0.0 | 0.00 | 0.00 | 0.00 | 94 | 1019.7 |
| 20260905080510 | 69 | 0 | 0.0 | 0.0 | 0.00 | 0.00 | 0.00 | 94 | 1019.6 |
| 20260905075509 | 69 | 0 | 0.0 | 0.0 | 0.00 | 0.00 | 0.00 | 94 | 1019.6 |
| 20260905075009 | 69 | 0 | 0.0 | 0.0 | 0.00 | 0.00 | 0.00 | 94 | 1019.6 |
| 20260905074510 | 69 | 0 | 0.0 | 0.0 | 0.00 | 0.00 | 0.00 | 94 | 1019.7 |
| 20260905073509 | 69 | 0 | 0.0 | 0.0 | 0.00 | 0.00 | 0.00 | 94 | 1019.7 |
| 20260905073009 | 69 | 0 | 0.0 | 0.0 | 0.00 | 0.00 | 0.00 | 94 | 1019.7 |
| 20260905072011 | 69 | 0 | 0.0 | 0.0 | 0.00 | 0.00 | 0.00 | 94 | 1019.9 |
| 20260905071509 | 69 | 0 | 0.0 | 0.0 | 0.00 | 0.00 | 0.00 | 94 | 1019.9 |
| 20260905071010 | 69 | 0 | 0.0 | 0.0 | 0.00 | 0.00 | 0.00 | 94 | 1019.9 |
| 20260905070009 | 70 | 0 | 0.0 | 0.0 | 0.00 | 0.00 | 0.00 | 94 | 1020.0 |
| 20260905065509 | 70 | 0 | 0.0 | 0.0 | 0.00 | 0.00 | 0.00 | 94 | 1020.1 |
| 20260905065009 | 70 | 0 | 0.0 | 0.0 | 0.00 | 0.00 | 0.00 | 94 | 1020.0 |
| 20260905064510 | 70 | 0 | 0.0 | 0.0 | 0.00 | 0.00 | 0.00 | 94 | 1020.0 |
| 20260905064008 | 70 | 0 | 0.0 | 0.0 | 0.00 | 0.00 | 0.00 | 94 | 1020.1 |
| 20260905063509 | 70 | 0 | 0.0 | 0.0 | 0.00 | 0.00 | 0.00 | 94 | 1020.1 |
| 20260905063009 | 70 | 0 | 0.0 | 0.0 | 0.00 | 0.00 | 0.00 | 94 | 1020.1 |
| 20260905062509 | 70 | 0 | 0.0 | 0.0 | 0.00 | 0.00 | 0.00 | 94 | 1020.2 |
| 20260905062009 | 70 | 0 | 0.0 | 0.0 | 0.00 | 0.00 | 0.00 | 94 | 1020.4 |
| 20260905061509 | 70 | 0 | 0.0 | 0.0 | 0.00 | 0.00 | 0.00 | 94 | 1020.4 |
| 20260905061009 | 70 | 0 | 0.0 | 0.0 | 0.00 | 0.00 | 0.00 | 94 | 1020.4 |